CW4352 Weather Reports


Display with metric or nautical units.
time (UTC)temp
F
wind
direction
speed
MPH
gust
MPH
rain 1hr
in
rain 24hr
in
rain mn
in
humidity
%
barometer
mb
20260503174205 72 19 0.0 0.0 0.00 0.00 0.00 46 1010.6
20260503173204 73 19 0.0 1.0 0.00 0.00 0.00 40 1011.0
20260503171704 74 19 1.0 2.0 0.00 0.00 0.00 37 1011.0
20260503171204 74 19 0.0 0.0 0.00 0.00 0.00 41 1011.0
20260503150205 76 355 2.0 3.0 0.00 0.00 0.00 32 1011.5
20260503140204 76 327 2.0 6.0 0.00 0.00 0.00 34 1012.2
20260503130204 75 17 3.0 5.0 0.00 0.00 0.00 35 1012.3
20260503110704 73 26 2.0 5.0 0.00 0.00 0.00 38 1013.0
20260503090204 73 9 2.0 5.0 0.00 0.00 0.00 45 1013.6
20260503081203 73 296 1.0 3.0 0.00 0.00 0.00 41 1013.6
20260503080704 72 296 1.0 3.0 0.00 0.00 0.00 36 1013.6
20260503080204 72 296 1.0 3.0 0.00 0.00 0.00 40 1013.6
20260503071704 66 296 1.0 2.0 0.00 0.00 0.00 46 1013.7
20260503070704 65 296 0.0 2.0 0.00 0.00 0.00 47 1013.8
20260503070204 65 296 0.0 3.0 0.00 0.00 0.00 47 1013.8
20260503054704 56 296 2.0 6.0 0.00 0.00 0.00 55 1014.1
20260503053204 55 296 1.0 3.0 0.00 0.00 0.00 56 1014.0
20260503051704 54 296 2.0 6.0 0.00 0.00 0.00 54 1014.0
20260503050704 54 296 1.0 3.0 0.00 0.00 0.00 57 1014.0
20260503044204 53 296 1.0 3.0 0.00 0.00 0.00 53 1013.9
20260503043204 53 296 1.0 3.0 0.00 0.00 0.00 52 1013.9
20260503041704 53 296 1.0 6.0 0.00 0.00 0.00 53 1013.8
20260503041204 53 296 2.0 7.0 0.00 0.00 0.00 52 1013.8
20260503040704 53 296 1.0 3.0 0.00 0.00 0.00 52 1013.8
20260503040204 53 296 1.0 7.0 0.00 0.00 0.00 52 1013.8
20260503034704 54 296 1.0 3.0 0.00 0.00 0.00 51 1013.8
20260503034204 54 296 3.0 8.0 0.00 0.00 0.00 50 1013.8
20260503033204 54 296 2.0 12.0 0.00 0.00 0.00 50 1013.8
20260503031203 54 296 3.0 6.0 0.00 0.00 0.00 50 1014.0
20260503030204 54 303 1.0 6.0 0.00 0.00 0.00 50 1014.0
20260503024204 53 18 0.0 3.0 0.00 0.00 0.00 53 1014.2
20260503023704 53 18 1.0 3.0 0.00 0.00 0.00 53 1014.2
20260503021704 53 19 2.0 6.0 0.00 0.00 0.00 53 1014.2
20260503021204 53 19 2.0 6.0 0.00 0.00 0.00 54 1014.2
20260503014704 53 23 2.0 6.0 0.00 0.00 0.00 54 1014.3
20260503013203 53 24 2.0 7.0 0.00 0.00 0.00 56 1014.3
20260503011704 53 28 2.0 3.0 0.00 0.00 0.00 56 1014.3
20260503010703 54 28 0.0 2.0 0.00 0.00 0.00 56 1014.4
20260503004204 54 28 1.0 5.0 0.00 0.00 0.00 57 1014.8
20260503003704 54 28 1.0 6.0 0.00 0.00 0.00 57 1014.8
20260503001704 54 28 1.0 3.0 0.00 0.00 0.00 58 1015.1
20260503001203 54 28 1.0 3.0 0.00 0.00 0.00 58 1015.1
20260502234704 54 28 1.0 2.0 0.00 0.00 0.00 59 1015.1
20260502234203 53 28 0.0 2.0 0.00 0.00 0.00 60 1015.1
20260502231704 54 28 0.0 2.0 0.00 0.00 0.00 59 1015.3
20260502231204 54 28 0.0 1.0 0.00 0.00 0.00 58 1015.3
20260502230706 54 28 0.0 1.0 0.00 0.00 0.00 58 1015.3
20260502224204 55 28 0.0 1.0 0.00 0.00 0.00 58 1015.3
20260502223704 55 28 0.0 2.0 0.00 0.00 0.00 58 1015.3
20260502221203 55 28 0.0 2.0 0.00 0.00 0.00 57 1015.3
20260502214204 56 34 0.0 1.0 0.00 0.00 0.00 56 1015.3
20260502213204 56 34 1.0 3.0 0.00 0.00 0.00 56 1015.5
20260502211703 56 34 2.0 3.0 0.00 0.00 0.00 56 1015.5
20260502211203 56 34 2.0 3.0 0.00 0.00 0.00 57 1015.5
20260502210704 57 34 2.0 3.0 0.00 0.00 0.00 56 1015.5
20260502204704 57 34 0.0 1.0 0.00 0.00 0.00 54 1015.5
20260502204204 58 34 0.0 2.0 0.00 0.00 0.00 54 1015.5
20260502203704 58 34 1.0 2.0 0.00 0.00 0.00 53 1015.5
20260502201704 58 34 0.0 3.0 0.00 0.00 0.00 51 1015.7
20260502200704 58 34 0.0 1.0 0.00 0.00 0.00 51 1015.7
20260502194704 59 34 1.0 2.0 0.00 0.00 0.00 50 1015.4
20260502193704 59 34 0.0 0.0 0.00 0.00 0.00 50 1015.4
20260502193204 59 34 0.0 2.0 0.00 0.00 0.00 50 1015.4
20260502191203 60 34 0.0 0.0 0.00 0.00 0.00 48 1015.4
20260502190703 61 34 0.0 0.0 0.00 0.00 0.00 47 1015.4
20260502190203 61 34 0.0 0.0 0.00 0.00 0.00 46 1015.3
20260502184703 63 34 0.0 1.0 0.00 0.00 0.00 43 1015.2
20260502183703 64 34 0.0 0.0 0.00 0.00 0.00 42 1015.3
20260502183204 65 34 0.0 0.0 0.00 0.00 0.00 42 1015.3
20260502181704 67 34 0.0 0.0 0.00 0.00 0.00 39 1015.1